Location: Schommer Observatory
(40.5200°N, 74.4500°W)
Time: 11:06:11

N. Korean satellite - Visible Passes

Search period start: 23 March 2018 00:00
Search period end: 02 April 2018 00:00
Orbit: 460 x 512 km, 97.2° (Epoch: 22 March)

Date Brightness Start Highest point End Pass type
(mag) Time Alt. Az. Time Alt. Az. Time Alt. Az.
24 Mar 10.3 20:00:01 10° WSW 20:01:30 12° W 20:02:58 10° WNW visible
28 Mar 10.2 19:57:55 10° WSW 19:59:36 13° W 20:01:19 10° WNW visible
01 Apr 10.1 19:55:48 10° WSW 19:57:40 13° W 19:59:33 10° WNW visible
